TimeEEST,TemperatureF,Dew PointF,Humidity,Sea Level PressureIn,VisibilityMPH,Wind Direction,Wind SpeedMPH,Gust SpeedMPH,PrecipitationIn,Events,Conditions,WindDirDegrees,DateUTC
12:50 AM,51.8,37.4,58,29.92,-9999.0,West,4.6,-,N/A,,Clear,270,2013-04-04 21:50:00
1:50 AM,48.2,39.2,71,29.92,-9999.0,West,4.6,-,N/A,,Clear,260,2013-04-04 22:50:00
2:50 AM,46.4,39.2,76,29.92,-9999.0,West,4.6,-,N/A,,Clear,260,2013-04-04 23:50:00
3:50 AM,48.2,39.2,71,29.92,-9999.0,West,4.6,-,N/A,,Clear,260,2013-04-05 00:50:00
4:50 AM,50.0,41.0,71,29.89,6.2,Calm,Calm,-,N/A,,Scattered Clouds,0,2013-04-05 01:50:00
5:50 AM,48.2,41.0,76,29.86,6.2,NW,4.6,-,N/A,,Partly Cloudy,310,2013-04-05 02:50:00
6:20 AM,48.2,41.0,76,29.86,6.2,NW,4.6,-,N/A,,Partly Cloudy,320,2013-04-05 03:20:00
6:50 AM,46.4,41.0,81,29.89,6.2,WNW,5.8,-,N/A,,Partly Cloudy,290,2013-04-05 03:50:00
7:20 AM,48.2,39.2,71,29.92,6.2,North,5.8,-,N/A,,Scattered Clouds,360,2013-04-05 04:20:00
7:50 AM,48.2,41.0,76,29.89,6.2,WSW,4.6,-,N/A,,Scattered Clouds,250,2013-04-05 04:50:00
8:20 AM,51.8,42.8,71,29.89,6.2,Calm,Calm,-,N/A,,Mostly Cloudy,0,2013-04-05 05:20:00
8:50 AM,53.6,44.6,72,29.89,6.2,West,4.6,-,N/A,,Mostly Cloudy,270,2013-04-05 05:50:00
9:20 AM,55.4,46.4,72,29.86,6.2,Calm,Calm,-,N/A,,Scattered Clouds,0,2013-04-05 06:20:00
9:50 AM,59.0,46.4,63,29.86,6.2,Calm,Calm,-,N/A,,Scattered Clouds,0,2013-04-05 06:50:00
10:20 AM,60.8,48.2,63,29.89,6.2,Calm,Calm,-,N/A,,Mostly Cloudy,0,2013-04-05 07:20:00
10:50 AM,60.8,48.2,63,29.86,6.2,Calm,Calm,-,N/A,,Mostly Cloudy,0,2013-04-05 07:50:00
11:20 AM,62.6,48.2,59,29.86,6.2,Calm,Calm,-,N/A,,Scattered Clouds,0,2013-04-05 08:20:00
11:50 AM,66.2,44.6,46,29.86,6.2,Calm,Calm,-,N/A,,Scattered Clouds,0,2013-04-05 08:50:00
12:50 PM,66.2,46.4,49,29.83,6.2,ENE,6.9,-,N/A,,Scattered Clouds,70,2013-04-05 09:50:00
1:20 PM,66.2,46.4,49,29.80,-9999.0,ENE,9.2,-,N/A,,Clear,60,2013-04-05 10:20:00
1:50 PM,66.2,48.2,52,29.77,-9999.0,ENE,10.4,-,N/A,,Clear,70,2013-04-05 10:50:00
2:20 PM,68.0,44.6,43,29.77,-9999.0,ENE,13.8,-,N/A,,Clear,70,2013-04-05 11:20:00
2:50 PM,68.0,48.2,49,29.71,6.2,East,18.4,-,N/A,,Scattered Clouds,90,2013-04-05 11:50:00
3:20 PM,68.0,46.4,46,29.71,6.2,East,16.1,-,N/A,,Mostly Cloudy,90,2013-04-05 12:20:00
3:50 PM,69.8,46.4,43,29.68,6.2,East,15.0,-,N/A,,Mostly Cloudy,90,2013-04-05 12:50:00
4:20 PM,69.8,46.4,43,29.65,-9999.0,East,15.0,-,N/A,,Clear,100,2013-04-05 13:20:00
4:50 PM,71.6,44.6,38,29.65,-9999.0,East,12.7,-,N/A,,Clear,90,2013-04-05 13:50:00
5:20 PM,71.6,44.6,38,29.65,-9999.0,East,13.8,-,N/A,,Clear,80,2013-04-05 14:20:00
5:50 PM,71.6,44.6,38,29.65,-9999.0,East,10.4,-,N/A,,Clear,100,2013-04-05 14:50:00
6:20 PM,73.4,41.0,31,29.68,6.2,ESE,13.8,-,N/A,,Mostly Cloudy,120,2013-04-05 15:20:00
6:50 PM,73.4,42.8,33,29.68,6.2,SSE,4.6,-,N/A,,Mostly Cloudy,160,2013-04-05 15:50:00
7:20 PM,68.0,46.4,46,29.68,-9999.0,North,5.8,-,N/A,,Clear,360,2013-04-05 16:20:00
7:50 PM,66.2,44.6,46,29.71,-9999.0,NNW,6.9,-,N/A,,Clear,340,2013-04-05 16:50:00
8:20 PM,68.0,41.0,37,29.71,6.2,SSW,8.1,-,N/A,,Scattered Clouds,200,2013-04-05 17:20:00
8:50 PM,64.4,42.8,45,29.71,6.2,WNW,8.1,-,N/A,,Scattered Clouds,300,2013-04-05 17:50:00
9:50 PM,66.2,42.8,43,29.71,6.2,West,11.5,-,N/A,,Scattered Clouds,270,2013-04-05 18:50:00
10:50 PM,64.4,42.8,45,29.74,6.2,SW,4.6,-,N/A,,Partly Cloudy,220,2013-04-05 19:50:00